Flag for Pakistan Weather past 2 weeks in Islamabad, Pakistan

Now
91 °F

Broken clouds.


Feels Like: 105 °F
Forecast: 77 / 90 °F
Wind: 21 mph from Southeast

Location: Islamabad Airport

Current Time: Jul 31, 2015 at 3:21:36 PM

Latest Report: Jul 31, 2015 at 3:00 PM


Visibility: 2 mi

Pressure: 29.53 "Hg (27.76 "Hg at 554m altitude)

Humidity: 63%

Dew point: 77 °F

Location of IslamabadLocation

Historic Weather in Islamabad — Graph

°F

Islamabad temperature yesterday

Maximum temperature yesterday: 90 °F (at 11:00 AM)
Minimum temperature yesterday: 75 °F (at 7:00 PM)
Average temperature yesterday: 84 °F

Past Weeks' High & Low Weather Summary

 TemperatureHumidityPressure
High99 °F (Jul 16, 2:00 PM)100% (Jul 17, 4:00 AM)30.01 "Hg (Jul 17, 4:00 AM)
Low68 °F (Jul 23, 1:00 PM)47% (Jul 27, 3:00 PM)29.33 "Hg (Jul 16, 5:00 PM)
Average83 °F77%29.62 "Hg
* Reported Jul 16 2:00 PM — Jul 31 2:00 PM, Islamabad, Weather by CustomWeather, © 2015

Note: Actual official high and low records may vary slightly from our data, if they occured in-between our weather recording intervals... More about our weather records

Advertising

Islamabad weather history for previous 24 hours

 ConditionsComfort  
Time TempWeatherWind HumidityBarometerVisibility
2:00 PM
Fri, Jul 31
91 °FBroken clouds.18 mph63%29.56 "Hg3 mi
1:30 PM90 °FBroken clouds.18 mph67%29.56 "Hg3 mi
1:00 PM90 °FBroken clouds.18 mph67%29.56 "Hg3 mi
12:30 PM90 °FBroken clouds.14 mph67%29.59 "Hg3 mi
12:00 PM90 °FBroken clouds.14 mph67%29.59 "Hg3 mi
11:30 AM90 °FBroken clouds.14 mph67%29.59 "Hg3 mi
11:00 AM90 °FBroken clouds.14 mph67%29.59 "Hg3 mi
10:00 AM86 °FBroken clouds.12 mph70%29.59 "Hg3 mi
5:00 AM81 °FPartly cloudy.7 mph74%29.56 "Hg2 mi
4:00 AM81 °FThundershowers. Partly cloudy.7 mph74%29.56 "Hg2 mi
3:00 AM81 °FThundershowers. Partly cloudy.7 mph74%29.56 "Hg2 mi
2:00 AM81 °FThundershowers. Passing clouds.7 mph74%29.56 "Hg2 mi
1:00 AM81 °FThundershowers. Passing clouds.7 mph74%29.56 "Hg2 mi
12:00 AM81 °FThundershowers. Passing clouds.9 mph79%29.59 "Hg2 mi
11:00 PM
Thu, Jul 30
81 °FPassing clouds.7 mph79%29.59 "Hg2 mi
10:00 PM81 °FPassing clouds.7 mph79%29.59 "Hg2 mi
9:00 PM81 °FPassing clouds.9 mph79%29.59 "Hg2 mi
8:00 PM82 °FPassing clouds.16 mph74%29.56 "Hg2 mi
7:00 PM75 °FScattered clouds.16 mph94%29.56 "Hg2 mi
6:00 PM84 °FScattered clouds.16 mph70%29.53 "Hg2 mi
5:00 PM86 °FScattered clouds.21 mph75%29.53 "Hg2 mi
4:00 PM86 °FScattered clouds.18 mph75%29.53 "Hg3 mi
Weather by CustomWeather, © 2015

See weather overviewHow to use our weather pages